Overview Statistics Trail Chart Weather Telemetry Raw packets
 

This is the latest recevied weather packets stored in our database for station/object WA6OOO. If no packets are shown the sender has not sent any weather packets the latest 10 day(s).

<< 33 34 35 36 37 38 39 >>
Time Temp. Humidity Pressure Rain* Wind** Luminosity Snow
1788453630 22.22° C 68% 1017.8 hPa 0 mm - 407 W/m² -
1788453325 22.22° C 69% 1017.9 hPa 0 mm - 393 W/m² -
1788453021 22.22° C 69% 1017.9 hPa 0 mm - 378 W/m² -
1788452717 21.67° C 70% 1017.7 hPa 0 mm - 365 W/m² -
1788452413 21.67° C 69% 1017.7 hPa 0 mm - 351 W/m² -
1788452108 21.67° C 70% 1017.7 hPa 0 mm - 336 W/m² -
1788451805 21.11° C 71% 1017.7 hPa 0 mm - 320 W/m² -
1788451503 21.67° C 70% 1017.9 hPa 0 mm - 307 W/m² -
1788451203 21.11° C 70% 1017.8 hPa 0 mm - 289 W/m² -
1788450896 20.56° C 72% 1017.9 hPa 0 mm - 275 W/m² -
1788450593 20.56° C 72% 1017.8 hPa 0 mm - 258 W/m² -
1788450288 20.56° C 72% 1017.8 hPa 0 mm - 244 W/m² -
1788449984 20.56° C 73% 1017.9 hPa 0 mm - 228 W/m² -
1788449679 20° C 73% 1017.8 hPa 0 mm - 166 W/m² -
1788449375 20° C 74% 1017.7 hPa 0 mm - 196 W/m² -
1788449071 19.44° C 77% 1018 hPa 0 mm - 180 W/m² -
1788448767 18.89° C 78% 1017.8 hPa 0 mm - 79 W/m² -
1788448455 18.89° C 80% 1017.7 hPa 0 mm - 47 W/m² -
1788448150 18.89° C 82% 1017.8 hPa 0 mm - 46 W/m² -
1788447845 18.89° C 83% 1017.6 hPa 0 mm - 45 W/m² -
1788447540 18.89° C 83% 1017.6 hPa 0 mm - 117 W/m² -
1788447235 18.89° C 84% 1017.6 hPa 0 mm - 41 W/m² -
1788446934 18.33° C 85% 1017.6 hPa 0 mm - 55 W/m² -
1788446630 18.33° C 86% 1017.7 hPa 0 mm - 50 W/m² -
1788446324 17.78° C 87% 1017.5 hPa 0 mm - 52 W/m² -

* Rain latest hour (hover to see other rain measurements)
** Current wind speed in m/s (hover to see current wind gust speed)